ARG1645 SAZY-SACO

Flight info

Callsign ARG1645
Flight time 1h 45m
Altitude FL370
Route EKOTA W32 NEU UZ114 SIMES SIME1Q
Aircraft B38M/M-SDE2E3FGHIRWXY/LB1

Departure

Time 2026-05-04 20:46
Airport Aviador C. Campos Airport (SAZY)

Arrival

Time 2026-05-04 22:31
Airport Ingeniero Aeronáutico Ambrosio L.V. Taravella International Airport (SACO)
Time Latitude Longitude Altitude Speed Heading
2026-05-04 20:20 -40.08112 -71.14231 2600 ft 0 kts 327°
2026-05-04 20:41 -40.08108 -71.14234 2600 ft 2 kts 330°
2026-05-04 20:41 -40.08085 -71.14238 2600 ft 5 kts
2026-05-04 20:41 -40.08038 -71.14208 2600 ft 10 kts 31°
2026-05-04 20:41 -40.07964 -71.14146 2600 ft 15 kts 33°
2026-05-04 20:42 -40.07860 -71.14055 2600 ft 21 kts 34°
2026-05-04 20:42 -40.07729 -71.13944 2600 ft 23 kts 33°
2026-05-04 20:42 -40.07603 -71.13833 2601 ft 21 kts 36°
2026-05-04 20:42 -40.07513 -71.13687 2601 ft 22 kts 71°
2026-05-04 20:43 -40.07458 -71.13502 2602 ft 22 kts 68°
2026-05-04 20:43 -40.07402 -71.13313 2602 ft 23 kts 68°
2026-05-04 20:43 -40.07341 -71.13122 2603 ft 23 kts 68°
2026-05-04 20:43 -40.07280 -71.12920 2600 ft 25 kts 68°
2026-05-04 20:44 -40.07214 -71.12706 2599 ft 26 kts 68°
2026-05-04 20:44 -40.07157 -71.12497 2599 ft 22 kts 81°
2026-05-04 20:44 -40.07132 -71.12418 2600 ft 0 kts 307°
2026-05-04 20:44 -40.07138 -71.12459 2599 ft 9 kts 246°
2026-05-04 20:45 -40.07167 -71.12550 2591 ft 12 kts 248°
2026-05-04 20:45 -40.07231 -71.12760 2600 ft 53 kts 249°
2026-05-04 20:45 -40.07448 -71.13466 2602 ft 113 kts 248°
2026-05-04 20:45 -40.07788 -71.14623 2620 ft 155 kts 250°
2026-05-04 20:46 -40.08311 -71.15797 3203 ft 158 kts 239°
2026-05-04 20:46 -40.08970 -71.16961 3824 ft 157 kts 238°
2026-05-04 20:46 -40.09636 -71.18105 4477 ft 163 kts 239°
2026-05-04 20:46 -40.10377 -71.19337 4797 ft 183 kts 238°
2026-05-04 20:47 -40.11083 -71.20812 5086 ft 201 kts 259°
2026-05-04 20:47 -40.10893 -71.22654 5486 ft 216 kts 298°
2026-05-04 20:47 -40.10145 -71.24271 6581 ft 209 kts 290°
2026-05-04 20:47 -40.09667 -71.26096 7218 ft 219 kts 286°
2026-05-04 20:48 -40.09207 -71.28057 7813 ft 232 kts 285°
2026-05-04 20:48 -40.08762 -71.30069 8766 ft 230 kts 284°
2026-05-04 20:48 -40.08311 -71.32072 9648 ft 231 kts 290°
2026-05-04 20:48 -40.07366 -71.33786 10327 ft 245 kts 313°
2026-05-04 20:49 -40.05736 -71.34834 10487 ft 285 kts 340°
2026-05-04 20:49 -40.03638 -71.34624 10928 ft 328 kts
2026-05-04 20:49 -40.01619 -71.32980 11512 ft 359 kts 33°
2026-05-04 20:49 -39.99696 -71.30845 12105 ft 369 kts 33°
2026-05-04 20:50 -39.98001 -71.28240 12780 ft 387 kts 56°
2026-05-04 20:50 -39.97040 -71.24933 13503 ft 398 kts 76°
2026-05-04 20:50 -39.96440 -71.21395 14147 ft 403 kts 75°
2026-05-04 20:50 -39.95807 -71.17834 14831 ft 405 kts 75°
2026-05-04 20:51 -39.95160 -71.14257 15558 ft 407 kts 75°
2026-05-04 20:51 -39.94506 -71.10665 16271 ft 410 kts 75°
2026-05-04 20:51 -39.93846 -71.07054 16936 ft 411 kts 75°
2026-05-04 20:51 -39.93182 -71.03425 17623 ft 414 kts 75°
2026-05-04 20:52 -39.92512 -70.99770 18248 ft 417 kts 75°
2026-05-04 20:52 -39.91834 -70.96087 18788 ft 420 kts 74°
2026-05-04 20:52 -39.91151 -70.92377 19308 ft 424 kts 74°
2026-05-04 20:52 -39.90461 -70.88634 19815 ft 428 kts 74°
2026-05-04 20:53 -39.89763 -70.84859 20296 ft 431 kts 74°
2026-05-04 20:53 -39.89060 -70.81064 20834 ft 434 kts 74°
2026-05-04 20:53 -39.88349 -70.77233 21321 ft 438 kts 73°
2026-05-04 20:53 -39.87630 -70.73367 21827 ft 441 kts 73°
2026-05-04 20:54 -39.86906 -70.69480 22328 ft 445 kts 73°
2026-05-04 20:54 -39.86175 -70.65563 22829 ft 448 kts 73°
2026-05-04 20:54 -39.85436 -70.61615 23320 ft 451 kts 73°
2026-05-04 20:54 -39.84691 -70.57641 23725 ft 455 kts 73°
2026-05-04 20:55 -39.83938 -70.53633 24072 ft 459 kts 73°
2026-05-04 20:55 -39.83169 -70.49602 24447 ft 461 kts 70°
2026-05-04 20:55 -39.81972 -70.45765 24797 ft 459 kts 59°
2026-05-04 20:55 -39.80601 -70.42001 25109 ft 464 kts 60°
2026-05-04 20:56 -39.79228 -70.38201 25480 ft 467 kts 60°
2026-05-04 20:56 -39.77838 -70.34380 25826 ft 471 kts 59°
2026-05-04 20:56 -39.76431 -70.30521 26155 ft 475 kts 59°
2026-05-04 20:56 -39.75016 -70.26644 26508 ft 478 kts 59°
2026-05-04 20:57 -39.73585 -70.22732 26823 ft 482 kts 59°
2026-05-04 20:57 -39.72144 -70.18795 27164 ft 485 kts 59°
2026-05-04 20:57 -39.70692 -70.14835 27481 ft 489 kts 59°
2026-05-04 20:57 -39.69229 -70.10849 27798 ft 492 kts 59°
2026-05-04 20:58 -39.67753 -70.06835 28105 ft 495 kts 59°
2026-05-04 20:58 -39.66268 -70.02800 28412 ft 498 kts 59°
2026-05-04 20:58 -39.64771 -69.98740 28707 ft 502 kts 59°
2026-05-04 20:58 -39.63263 -69.94654 29020 ft 505 kts 58°
2026-05-04 20:59 -39.61744 -69.90544 29306 ft 508 kts 58°
2026-05-04 20:59 -39.60212 -69.86405 29602 ft 511 kts 58°
2026-05-04 20:59 -39.58673 -69.82252 29893 ft 514 kts 58°
2026-05-04 20:59 -39.57123 -69.78077 30151 ft 516 kts 58°
2026-05-04 21:00 -39.55565 -69.73886 30423 ft 518 kts 58°
2026-05-04 21:00 -39.54000 -69.69680 30683 ft 521 kts 58°
2026-05-04 21:00 -39.52425 -69.65455 30937 ft 523 kts 58°
2026-05-04 21:00 -39.50844 -69.61220 31190 ft 525 kts 58°
2026-05-04 21:01 -39.49254 -69.56968 31452 ft 527 kts 58°
2026-05-04 21:01 -39.47658 -69.52701 31700 ft 529 kts 58°
2026-05-04 21:01 -39.46051 -69.48417 31955 ft 531 kts 58°
2026-05-04 21:01 -39.44437 -69.44119 32201 ft 533 kts 58°
2026-05-04 21:02 -39.42820 -69.39818 32443 ft 535 kts 58°
2026-05-04 21:02 -39.41190 -69.35488 32682 ft 537 kts 58°
2026-05-04 21:02 -39.39555 -69.31153 32907 ft 539 kts 58°
2026-05-04 21:02 -39.37913 -69.26804 33214 ft 539 kts 58°
2026-05-04 21:03 -39.36271 -69.22463 33556 ft 539 kts 58°
2026-05-04 21:03 -39.34628 -69.18125 33877 ft 538 kts 58°
2026-05-04 21:03 -39.32985 -69.13794 34142 ft 538 kts 58°
2026-05-04 21:03 -39.31340 -69.09462 34418 ft 538 kts 58°
2026-05-04 21:04 -39.29694 -69.05136 34682 ft 538 kts 58°
2026-05-04 21:04 -39.28050 -69.00819 34945 ft 537 kts 58°
2026-05-04 21:04 -39.26403 -68.96505 35222 ft 537 kts 58°
2026-05-04 21:04 -39.24759 -68.92199 35491 ft 536 kts 58°
2026-05-04 21:05 -39.23114 -68.87898 35744 ft 536 kts 58°
2026-05-04 21:05 -39.21470 -68.83603 35978 ft 535 kts 58°
2026-05-04 21:05 -39.19824 -68.79309 36195 ft 535 kts 58°
2026-05-04 21:05 -39.18174 -68.75011 36410 ft 535 kts 58°
2026-05-04 21:06 -39.16520 -68.70726 36619 ft 536 kts 58°
2026-05-04 21:06 -39.14866 -68.66437 36799 ft 536 kts 58°
2026-05-04 21:06 -39.11548 -68.57848 36821 ft 536 kts 58°
2026-05-04 21:07 -39.08230 -68.49283 36823 ft 536 kts 58°
2026-05-04 21:07 -39.04899 -68.40709 36818 ft 537 kts 58°
2026-05-04 21:08 -39.01559 -68.32137 36805 ft 537 kts 58°
2026-05-04 21:08 -38.98212 -68.23568 36800 ft 538 kts 58°
2026-05-04 21:09 -38.96325 -68.19476 36783 ft 527 kts 45°
2026-05-04 21:09 -38.93900 -68.16053 36807 ft 512 kts 31°
2026-05-04 21:09 -38.91029 -68.13555 36792 ft 489 kts 15°
2026-05-04 21:09 -38.87980 -68.11670 36809 ft 489 kts 14°
2026-05-04 21:10 -38.81821 -68.08034 36805 ft 487 kts 13°
2026-05-04 21:10 -38.75933 -68.04687 36813 ft 487 kts 13°
2026-05-04 21:11 -38.69759 -68.01212 36817 ft 486 kts 13°
2026-05-04 21:11 -38.63590 -67.97748 36838 ft 484 kts 13°
2026-05-04 21:12 -38.57442 -67.94302 36838 ft 483 kts 13°
2026-05-04 21:12 -38.51307 -67.90871 36834 ft 482 kts 13°
2026-05-04 21:13 -38.45184 -67.87451 36840 ft 481 kts 13°
2026-05-04 21:13 -38.39074 -67.84046 36833 ft 480 kts 13°
2026-05-04 21:14 -38.32976 -67.80654 36836 ft 479 kts 13°
2026-05-04 21:14 -38.26881 -67.77269 36837 ft 478 kts 13°
2026-05-04 21:15 -38.20792 -67.73894 36828 ft 478 kts 13°
2026-05-04 21:15 -38.14705 -67.70527 36830 ft 478 kts 13°
2026-05-04 21:16 -38.08611 -67.67161 36826 ft 479 kts 13°
2026-05-04 21:16 -38.02512 -67.63799 36830 ft 479 kts 13°
2026-05-04 21:17 -37.96406 -67.60439 36819 ft 479 kts 13°
2026-05-04 21:17 -37.90296 -67.57083 36827 ft 480 kts 13°
2026-05-04 21:18 -37.84181 -67.53731 36818 ft 480 kts 13°
2026-05-04 21:18 -37.78051 -67.50376 36821 ft 481 kts 14°
2026-05-04 21:19 -37.71917 -67.47025 36815 ft 482 kts 14°
2026-05-04 21:19 -37.65770 -67.43674 36817 ft 482 kts 14°
2026-05-04 21:20 -37.59623 -67.40328 36817 ft 482 kts 14°
2026-05-04 21:20 -37.53472 -67.36986 36816 ft 482 kts 14°
2026-05-04 21:21 -37.47325 -67.33652 36819 ft 482 kts 14°
2026-05-04 21:21 -37.41180 -67.30325 36816 ft 482 kts 14°
2026-05-04 21:22 -37.35031 -67.27003 36810 ft 482 kts 14°
2026-05-04 21:22 -37.28889 -67.23689 36815 ft 481 kts 14°
2026-05-04 21:23 -37.22750 -67.20384 36812 ft 481 kts 14°
2026-05-04 21:23 -37.16618 -67.17087 36812 ft 480 kts 14°
2026-05-04 21:24 -37.10487 -67.13798 36808 ft 480 kts 14°
2026-05-04 21:24 -37.04370 -67.10521 36805 ft 479 kts 14°
2026-05-04 21:25 -36.98264 -67.07256 36809 ft 477 kts 14°
2026-05-04 21:25 -36.92175 -67.04004 36809 ft 476 kts 14°
2026-05-04 21:26 -36.86309 -67.00012 36816 ft 485 kts 23°
2026-05-04 21:26 -36.80561 -66.95644 36806 ft 485 kts 24°
2026-05-04 21:27 -36.74823 -66.91275 36800 ft 484 kts 24°
2026-05-04 21:27 -36.69097 -66.86920 36802 ft 483 kts 24°
2026-05-04 21:28 -36.63376 -66.82576 36799 ft 482 kts 24°
2026-05-04 21:28 -36.57666 -66.78249 36797 ft 481 kts 24°
2026-05-04 21:29 -36.51960 -66.73932 36796 ft 481 kts 24°
2026-05-04 21:29 -36.46260 -66.69628 36800 ft 480 kts 24°
2026-05-04 21:30 -36.40567 -66.65336 36797 ft 479 kts 24°
2026-05-04 21:30 -36.34878 -66.61055 36799 ft 479 kts 24°
2026-05-04 21:31 -36.26360 -66.54658 36796 ft 478 kts 24°
2026-05-04 21:32 -36.20689 -66.50409 36799 ft 477 kts 24°
2026-05-04 21:32 -36.15020 -66.46168 36799 ft 477 kts 24°
2026-05-04 21:33 -36.09356 -66.41938 36794 ft 476 kts 24°
2026-05-04 21:33 -36.03701 -66.37723 36793 ft 476 kts 24°
2026-05-04 21:34 -35.98048 -66.33516 36798 ft 475 kts 24°
2026-05-04 21:34 -35.92396 -66.29316 36799 ft 475 kts 24°
2026-05-04 21:35 -35.86735 -66.25117 36801 ft 476 kts 24°
2026-05-04 21:35 -35.81070 -66.20923 36805 ft 476 kts 24°
2026-05-04 21:36 -35.75399 -66.16730 36801 ft 477 kts 24°
2026-05-04 21:36 -35.69723 -66.12540 36804 ft 477 kts 24°
2026-05-04 21:37 -35.64039 -66.08353 36803 ft 477 kts 24°
2026-05-04 21:37 -35.58356 -66.04177 36804 ft 477 kts 24°
2026-05-04 21:38 -35.52662 -65.99999 36808 ft 478 kts 24°
2026-05-04 21:38 -35.46965 -65.95825 36807 ft 478 kts 24°
2026-05-04 21:39 -35.41265 -65.91656 36801 ft 478 kts 24°
2026-05-04 21:39 -35.35565 -65.87495 36804 ft 478 kts 24°
2026-05-04 21:40 -35.29865 -65.83339 36804 ft 478 kts 23°
2026-05-04 21:40 -35.24149 -65.79180 36806 ft 479 kts 23°
2026-05-04 21:41 -35.18431 -65.75025 36805 ft 479 kts 23°
2026-05-04 21:41 -35.12703 -65.70870 36804 ft 480 kts 23°
2026-05-04 21:42 -35.06972 -65.66720 36804 ft 480 kts 23°
2026-05-04 21:42 -35.01228 -65.62568 36808 ft 481 kts 23°
2026-05-04 21:43 -34.95483 -65.58421 36810 ft 481 kts 22°
2026-05-04 21:43 -34.89728 -65.54274 36812 ft 482 kts 22°
2026-05-04 21:44 -34.83970 -65.50132 36815 ft 482 kts 22°
2026-05-04 21:44 -34.78209 -65.45994 36815 ft 482 kts 22°
2026-05-04 21:45 -34.72438 -65.41856 36812 ft 482 kts 22°
2026-05-04 21:45 -34.66663 -65.37722 36816 ft 483 kts 22°
2026-05-04 21:46 -34.60888 -65.33593 36816 ft 483 kts 22°
2026-05-04 21:46 -34.55104 -65.29463 36816 ft 483 kts 22°
2026-05-04 21:47 -34.49320 -65.25342 36818 ft 483 kts 22°
2026-05-04 21:47 -34.43527 -65.21220 36817 ft 484 kts 22°
2026-05-04 21:48 -34.37734 -65.17105 36828 ft 484 kts 22°
2026-05-04 21:48 -34.31937 -65.12994 36816 ft 484 kts 22°
2026-05-04 21:49 -34.26138 -65.08889 36821 ft 484 kts 22°
2026-05-04 21:49 -34.20330 -65.04783 36820 ft 484 kts 22°
2026-05-04 21:50 -34.14527 -65.00687 36822 ft 484 kts 22°
2026-05-04 21:50 -34.08721 -64.96596 36821 ft 485 kts 22°
2026-05-04 21:51 -34.02907 -64.92506 36821 ft 485 kts 22°
2026-05-04 21:51 -33.97090 -64.88421 36821 ft 485 kts 22°
2026-05-04 21:52 -33.91279 -64.84345 36821 ft 485 kts 22°
2026-05-04 21:52 -33.85454 -64.80267 36822 ft 485 kts 22°
2026-05-04 21:53 -33.79632 -64.76198 36821 ft 485 kts 22°
2026-05-04 21:53 -33.73804 -64.72131 36822 ft 485 kts 22°
2026-05-04 21:54 -33.67974 -64.68069 36821 ft 485 kts 22°
2026-05-04 21:54 -33.62145 -64.64014 36819 ft 485 kts 22°
2026-05-04 21:55 -33.56309 -64.59960 36823 ft 485 kts 22°
2026-05-04 21:55 -33.50475 -64.55915 36824 ft 486 kts 22°
2026-05-04 21:56 -33.44674 -64.51761 36823 ft 487 kts 23°
2026-05-04 21:56 -33.38876 -64.47611 36826 ft 487 kts 23°
2026-05-04 21:57 -33.33071 -64.43466 36828 ft 488 kts 23°
2026-05-04 21:57 -33.27234 -64.39304 36830 ft 491 kts 23°
2026-05-04 21:58 -33.21383 -64.35139 36823 ft 491 kts 23°
2026-05-04 21:58 -33.15522 -64.30973 36826 ft 491 kts 23°
2026-05-04 21:59 -33.09655 -64.26826 36827 ft 490 kts 22°
2026-05-04 21:59 -33.03731 -64.22829 36828 ft 490 kts 22°
2026-05-04 22:00 -32.97808 -64.18822 36829 ft 491 kts 22°
2026-05-04 22:00 -32.91884 -64.14818 36830 ft 491 kts 22°
2026-05-04 22:00 -32.88923 -64.12819 36433 ft 490 kts 22°
2026-05-04 22:01 -32.85967 -64.10825 35795 ft 488 kts 22°
2026-05-04 22:01 -32.83023 -64.08840 35181 ft 487 kts 22°
2026-05-04 22:01 -32.80087 -64.06863 34592 ft 485 kts 22°
2026-05-04 22:01 -32.77188 -64.04844 34005 ft 486 kts 26°
2026-05-04 22:02 -32.74424 -64.02510 33375 ft 490 kts 32°
2026-05-04 22:02 -32.71855 -63.99849 32723 ft 493 kts 39°
2026-05-04 22:02 -32.69507 -63.96891 32084 ft 495 kts 45°
2026-05-04 22:02 -32.67399 -63.93656 31459 ft 498 kts 51°
2026-05-04 22:03 -32.65558 -63.90181 30841 ft 499 kts 57°
2026-05-04 22:03 -32.64000 -63.86503 30181 ft 499 kts 64°
2026-05-04 22:03 -32.62762 -63.82702 29452 ft 491 kts 70°
2026-05-04 22:03 -32.61858 -63.78840 28701 ft 484 kts 76°
2026-05-04 22:04 -32.61294 -63.74952 27970 ft 477 kts 83°
2026-05-04 22:04 -32.61070 -63.71060 27267 ft 469 kts 89°
2026-05-04 22:04 -32.61183 -63.67233 26573 ft 462 kts 96°
2026-05-04 22:04 -32.61621 -63.63497 25908 ft 455 kts 102°
2026-05-04 22:05 -32.62372 -63.59902 25252 ft 447 kts 109°
2026-05-04 22:05 -32.63426 -63.56471 24611 ft 440 kts 115°
2026-05-04 22:05 -32.64760 -63.53249 23991 ft 432 kts 121°
2026-05-04 22:05 -32.66076 -63.50071 23372 ft 428 kts 114°
2026-05-04 22:06 -32.66999 -63.46746 22791 ft 421 kts 98°
2026-05-04 22:06 -32.66939 -63.43394 22681 ft 397 kts 74°
2026-05-04 22:06 -32.65894 -63.40513 22582 ft 369 kts 50°
2026-05-04 22:06 -32.64228 -63.38271 22511 ft 365 kts 36°
2026-05-04 22:07 -32.62153 -63.36491 22375 ft 371 kts 22°
2026-05-04 22:07 -32.59779 -63.35406 22256 ft 365 kts
2026-05-04 22:07 -32.57287 -63.35205 22156 ft 357 kts 348°
2026-05-04 22:07 -32.54915 -63.35863 22070 ft 348 kts 333°
2026-05-04 22:08 -32.52649 -63.36876 21972 ft 350 kts 335°
2026-05-04 22:08 -32.51120 -63.37516 21796 ft 350 kts 335°
2026-05-04 22:08 -32.48833 -63.38467 21441 ft 348 kts 335°
2026-05-04 22:08 -32.46558 -63.39414 21073 ft 347 kts 335°
2026-05-04 22:09 -32.43535 -63.40668 20583 ft 345 kts 335°
2026-05-04 22:09 -32.41287 -63.41598 20234 ft 343 kts 335°
2026-05-04 22:09 -32.39038 -63.42528 19867 ft 341 kts 335°
2026-05-04 22:09 -32.36808 -63.43450 19511 ft 339 kts 335°
2026-05-04 22:10 -32.34591 -63.44368 19163 ft 337 kts 335°
2026-05-04 22:10 -32.32389 -63.45278 18817 ft 335 kts 335°
2026-05-04 22:10 -32.30195 -63.46183 18469 ft 333 kts 335°
2026-05-04 22:10 -32.28015 -63.47082 18132 ft 332 kts 335°
2026-05-04 22:11 -32.25846 -63.47974 17757 ft 330 kts 336°
2026-05-04 22:11 -32.23694 -63.48860 17402 ft 327 kts 335°
2026-05-04 22:11 -32.21558 -63.49739 17064 ft 324 kts 336°
2026-05-04 22:11 -32.19441 -63.50609 16733 ft 321 kts 336°
2026-05-04 22:12 -32.17344 -63.51470 16405 ft 318 kts 336°
2026-05-04 22:12 -32.15264 -63.52322 16081 ft 316 kts 336°
2026-05-04 22:12 -32.13201 -63.53166 15761 ft 313 kts 336°
2026-05-04 22:12 -32.11155 -63.54002 15440 ft 311 kts 336°
2026-05-04 22:13 -32.09118 -63.54834 15121 ft 312 kts 336°
2026-05-04 22:13 -32.07053 -63.55675 14790 ft 317 kts 336°
2026-05-04 22:13 -32.04948 -63.56488 14428 ft 322 kts 342°
2026-05-04 22:13 -32.02749 -63.56998 14077 ft 322 kts 344°
2026-05-04 22:14 -32.00563 -63.57507 13784 ft 319 kts 344°
2026-05-04 22:14 -31.98400 -63.58027 13453 ft 317 kts 343°
2026-05-04 22:14 -31.96256 -63.58552 13111 ft 314 kts 343°
2026-05-04 22:14 -31.94126 -63.59079 12781 ft 312 kts 343°
2026-05-04 22:15 -31.92018 -63.59603 12457 ft 309 kts 344°
2026-05-04 22:15 -31.89923 -63.60125 12139 ft 307 kts 344°
2026-05-04 22:15 -31.87845 -63.60644 11826 ft 305 kts 344°
2026-05-04 22:15 -31.85784 -63.61158 11514 ft 302 kts 344°
2026-05-04 22:16 -31.83739 -63.61668 11203 ft 300 kts 344°
2026-05-04 22:16 -31.81707 -63.62174 10889 ft 298 kts 345°
2026-05-04 22:16 -31.79686 -63.62678 10581 ft 296 kts 345°
2026-05-04 22:16 -31.77680 -63.63177 10333 ft 292 kts 345°
2026-05-04 22:17 -31.75740 -63.63660 10274 ft 281 kts 345°
2026-05-04 22:17 -31.73866 -63.64127 10182 ft 270 kts 345°
2026-05-04 22:17 -31.72063 -63.64576 10062 ft 262 kts 345°
2026-05-04 22:17 -31.70254 -63.65025 9823 ft 271 kts 345°
2026-05-04 22:18 -31.68396 -63.65487 9514 ft 276 kts 345°
2026-05-04 22:18 -31.66518 -63.65953 9204 ft 277 kts 345°
2026-05-04 22:18 -31.64639 -63.66420 8909 ft 277 kts 346°
2026-05-04 22:18 -31.62757 -63.66887 8615 ft 277 kts 346°
2026-05-04 22:19 -31.60883 -63.67352 8310 ft 275 kts 346°
2026-05-04 22:19 -31.59022 -63.67814 8032 ft 273 kts 346°
2026-05-04 22:19 -31.57176 -63.68271 7748 ft 271 kts 346°
2026-05-04 22:19 -31.55343 -63.68725 7462 ft 269 kts 346°
2026-05-04 22:20 -31.53518 -63.69177 7179 ft 267 kts 347°
2026-05-04 22:20 -31.51708 -63.69625 6896 ft 266 kts 347°
2026-05-04 22:20 -31.49909 -63.70071 6617 ft 264 kts 347°
2026-05-04 22:20 -31.48121 -63.70513 6337 ft 263 kts 347°
2026-05-04 22:21 -31.46345 -63.70967 6070 ft 260 kts 343°
2026-05-04 22:21 -31.44812 -63.71959 5920 ft 251 kts 316°
2026-05-04 22:21 -31.43859 -63.73661 5837 ft 255 kts 291°
2026-05-04 22:21 -31.43561 -63.75721 5780 ft 260 kts 274°
2026-05-04 22:22 -31.43522 -63.77841 5694 ft 262 kts 273°
2026-05-04 22:22 -31.43499 -63.79964 5605 ft 261 kts 273°
2026-05-04 22:22 -31.43486 -63.82088 5531 ft 261 kts 272°
2026-05-04 22:22 -31.43479 -63.84172 5444 ft 252 kts 273°
2026-05-04 22:23 -31.43478 -63.86174 5386 ft 240 kts 273°
2026-05-04 22:23 -31.43479 -63.88073 5326 ft 229 kts 273°
2026-05-04 22:23 -31.43481 -63.89895 5228 ft 219 kts 273°
2026-05-04 22:23 -31.43484 -63.91625 5151 ft 208 kts 274°
2026-05-04 22:24 -31.43486 -63.93265 5114 ft 193 kts 274°
2026-05-04 22:24 -31.43488 -63.94782 5050 ft 183 kts 274°
2026-05-04 22:24 -31.43489 -63.96262 4989 ft 182 kts 274°
2026-05-04 22:24 -31.43491 -63.97739 4914 ft 181 kts 274°
2026-05-04 22:25 -31.43492 -63.99209 4824 ft 181 kts 275°
2026-05-04 22:25 -31.43492 -64.00677 4735 ft 181 kts 275°
2026-05-04 22:25 -31.43494 -64.02144 4672 ft 178 kts 274°
2026-05-04 22:25 -31.43495 -64.03550 4631 ft 171 kts 275°
2026-05-04 22:26 -31.43495 -64.04930 4544 ft 169 kts 275°
2026-05-04 22:26 -31.43495 -64.06296 4409 ft 166 kts 275°
2026-05-04 22:26 -31.43495 -64.07629 4266 ft 163 kts 275°
2026-05-04 22:26 -31.43495 -64.08955 4129 ft 163 kts 275°
2026-05-04 22:27 -31.43494 -64.10276 4017 ft 163 kts 275°
2026-05-04 22:27 -31.43493 -64.11602 3918 ft 163 kts 276°
2026-05-04 22:27 -31.43493 -64.12930 3796 ft 164 kts 276°
2026-05-04 22:27 -31.43491 -64.14263 3691 ft 165 kts 276°
2026-05-04 22:28 -31.43393 -64.15579 3559 ft 159 kts 296°
2026-05-04 22:28 -31.42747 -64.16559 3433 ft 152 kts 325°
2026-05-04 22:28 -31.41902 -64.17287 3280 ft 152 kts 328°
2026-05-04 22:28 -31.41067 -64.18010 3146 ft 148 kts 328°
2026-05-04 22:29 -31.40224 -64.18691 3017 ft 147 kts 331°
2026-05-04 22:29 -31.39355 -64.19319 2882 ft 147 kts 333°
2026-05-04 22:29 -31.38477 -64.19930 2736 ft 147 kts 334°
2026-05-04 22:29 -31.37585 -64.20508 2576 ft 146 kts 341°
2026-05-04 22:30 -31.36610 -64.20775 2419 ft 145 kts 359°
2026-05-04 22:30 -31.35598 -64.20769 2264 ft 147 kts
2026-05-04 22:30 -31.34581 -64.20771 2060 ft 147 kts
2026-05-04 22:30 -31.33564 -64.20793 1857 ft 146 kts
2026-05-04 22:31 -31.32544 -64.20831 1639 ft 147 kts
2026-05-04 22:31 -31.31623 -64.20832 1623 ft 112 kts
2026-05-04 22:31 -31.31102 -64.20830 1618 ft 42 kts
2026-05-04 22:31 -31.30971 -64.20844 1617 ft 3 kts 219°
2026-05-04 22:32 -31.31024 -64.20838 1618 ft 13 kts 172°
2026-05-04 22:32 -31.31105 -64.20834 1619 ft 11 kts 179°
2026-05-04 22:32 -31.31186 -64.20833 1622 ft 12 kts 179°
2026-05-04 22:32 -31.31268 -64.20832 1618 ft 12 kts 179°
2026-05-04 22:33 -31.31350 -64.20830 1620 ft 12 kts 179°
2026-05-04 22:33 -31.31422 -64.20836 1622 ft 9 kts 191°
2026-05-04 22:33 -31.31463 -64.20886 1621 ft 10 kts 258°
2026-05-04 22:33 -31.31465 -64.20959 1616 ft 5 kts 270°
2026-05-04 22:34 -31.31468 -64.21012 1615 ft 7 kts 264°
2026-05-04 22:34 -31.31476 -64.21079 1621 ft 9 kts 262°
2026-05-04 22:34 -31.31483 -64.21149 1618 ft 5 kts 265°
2026-05-04 22:34 -31.31485 -64.21171 1617 ft 1 kts 261°
2026-05-04 22:35 -31.31486 -64.21179 1616 ft 0 kts 261°